Location: Mountain Grove
(34.0887°N, 86.6172°W)
Time: 00:55:12
(UTC+00:00)

Gblst 52 Del rocket - Pass Details

Date: 14 July 2020
Orbit: 805 x 1366 km, 51.5° (Epoch: 12 August)

Event Time Altitude Azimuth Distance (km) Brightness Sun altitude
Rises 02:59:05 0° 311° (NW) 3,360 8.9 -20.7°
Reaches altitude 10° 03:01:27 10° 310° (NW) 2,461 7.8 -21.0°
Maximum altitude 03:07:10 77° 225° (SW) 930 4.3 -21.8°
Enters shadow 03:09:13 44° 150° (SSE) 1,261 4.6 -22.1°
